Location: *
(44.1392°N, 4.8079°E)
Time: 06:10:17
(UTC+00:00)

X-37B - Pass Details

Date: 24 October 2021
Orbit: 330 x 341 km, 45.0° (Epoch: 20 November)

Event Time Altitude Azimuth Distance (km) Brightness Sun altitude
Rises 17:38:30 0° 282° (WNW) 2,127 5.9 -10.7°
Reaches altitude 10° 17:40:31 10° 280° (W) 1,286 4.6 -11.1°
Maximum altitude 17:43:23 72° 196° (SSW) 361 0.4 -11.6°
Enters shadow 17:45:16 19° 114° (ESE) 884 1.9 -12.0°
